Sugar Bowl, California Weather observations

Data are for observation ending at time listed.
 Day   Time    Ave.   Ave.  Ave.  Vector   Max.   Stn.    Total    Solar   Ave.   Snow 
  of    of     Air    Rel.  Wind   Wind    Wind   Baro.  Precip.   Rad.    Soil   Depth
Year   Day     Temp.  Hum.  Speed  Dir.    Gust   Pres.                    Temp.       
2014   (PST)    F      %     mph   deg.    mph     mb.     in.     W/m2     F      in. 
---------------------------------------------------------------------------------------  
 327    5:50   25.4    78    4.1    71     15.8   792.4    0.00       0    999.0    2.2
 327    6:00   25.4    77    3.5    46      8.4   792.4    0.00       0    999.0    2.0
 327    6:10   24.7    84    2.4    40      6.9   792.5    0.00       0    999.0    2.4
 327    6:20   24.4    85    1.1    38      6.6   792.6    0.00       0    999.0    2.6
 327    6:30   24.0    86    1.4   192      5.3   792.6    0.00       0    999.0    2.3
 327    6:40   23.6    89    1.3   191      4.5   792.7    0.00       0    999.0    1.9
 327    6:50   23.1    91    1.0    82     12.4   792.7    0.00       1    999.0    1.6
 327    7:00   22.9    91    1.3    77      4.2   792.7    0.00       3    999.0    2.3
 327    7:10   23.0    91    1.2    54      5.0   792.6    0.00       6    999.0    1.7
 327    7:20   23.3    88    1.1    44      3.4   792.6    0.00      10    999.0    2.0
 327    7:30   23.5    87    1.9    50      6.7   792.6    0.00      12    999.0    1.8
 327    7:40   23.5    88    2.9    58      8.4   792.7    0.00      31    999.0    1.7
 327    7:50   23.9    88    2.2    47      7.7   792.6    0.00      34    999.0    1.4
 327    8:00   24.2    88    0.8    44      3.8   792.6    0.00      53    999.0    1.4
 327    8:10   24.9    87    0.8    45      4.7   792.8    0.00      57    999.0    1.1
 327    8:20   25.3    85    0.6    42      3.1   793.0    0.00      62    999.0    1.2
 327    8:30   25.7    83    2.0    53      7.7   793.1    0.00      82    999.0    1.3
 327    8:40   26.0    80    2.4    53     10.4   793.1    0.00      59    999.0    1.9
 327    8:50   26.3    79    0.7    39      3.8   793.1    0.00      74    999.0    0.9
 327    9:00   26.6    78    0.8   312      6.2   793.1    0.00      82    999.0    2.3
 327    9:10   26.9    79    1.6   184      5.4   793.2    0.00      93    999.0    3.1
 327    9:20   27.0    80    0.9   167      4.5   793.5    0.00     101    999.0    4.2
 327    9:30   27.2    79    0.5    65      8.3   793.6    0.00     103    999.0    4.3
 327    9:40   27.9    74    0.9   223      4.1   793.7    0.00     111    999.0    5.1
 327    9:50   28.6    73    0.9   281      3.2   793.8    0.00     124    999.0    5.2
 327   10:00   29.3    68    0.6   244      3.2   793.9    0.00     134    999.0    5.4
 327   10:10   30.3    67    0.1   295      1.3   793.9    0.00     158    999.0    4.9
 327   10:20   30.8    67    0.6   288      2.9   793.9    0.00     165    999.0    4.8
 327   10:30   31.1    69    0.7   144      4.7   793.9    0.00     160    999.0    4.0
 327   10:40   31.4    67    0.8   245      3.1   794.0    0.00     167    999.0    4.9
 327   10:50   31.9    65    1.1   296      3.9   794.1    0.00     168    999.0    5.1
 327   11:00   32.2    68    0.2     2      2.7   794.0    0.00     192    999.0    3.2
 327   11:10   32.8    71    0.2    71      1.5   793.9    0.00     193    999.0    2.4
 327   11:20   33.4    69    0.1    92      3.2   793.8    0.00     181    999.0    1.9
 327   11:30   34.0    64    0.3    74      2.6   793.7    0.00     196    999.0    1.6
 327   11:40   35.0    61    0.2    53      2.0   793.5    0.00     322    999.0    2.4
 327   11:50   35.8    53    0.6    64      4.8   793.3    0.00     351    999.0    3.0
 327   12:00   36.9    44    0.9    61      5.3   793.1    0.00     452    999.0    2.3
 327   12:10   37.5    42    1.5   119      6.8   793.0    0.00     342    999.0    2.8
 327   12:20   36.8    40    1.7    62      4.9   792.9    0.00     226    999.0    3.4
 327   12:30   36.5    38    1.0    91      6.1   792.9    0.00     195    999.0    5.5
 327   12:40   36.9    43    0.6   247      4.3   792.9    0.00     260    999.0    5.5
 327   12:50   37.0    44    0.4    31      2.6   792.9    0.00     154    999.0    5.5
 327   13:00   36.9    36    1.3   195      6.7   793.0    0.00     123    999.0    5.8
 327   13:10   37.0    33    0.9   197      5.0   792.9    0.00     122    999.0    6.0
 327   13:20   37.4    34    0.6   196      3.3   792.7    0.00     129    999.0    5.5
 327   13:30   37.9    34    0.4   293      2.0   792.6    0.00     147    999.0    4.9
 327   13:40   38.0    39    0.7   293      2.5   792.7    0.00     128    999.0    4.9
 327   13:50   38.0    36    0.7   300      2.1   792.8    0.00     115    999.0    5.5
 327   14:00   37.9    41    0.2   297      1.5   792.9    0.00     103    999.0    5.3
 327   14:10   38.1    38    0.0     0      0.0   792.8    0.00      95    999.0    5.2
 327   14:20   38.3    42    0.5    88      4.4   792.5    0.00      88    999.0    5.1
 327   14:30   37.9    46    0.6   290      2.6   792.5    0.00      77    999.0    5.0
 327   14:40   37.2    49    0.7   292      3.5   792.6    0.00      68    999.0    4.8
 327   14:50   37.2    54    0.7   337      3.1   792.6    0.00      74    999.0    4.7
 327   15:00   37.0    56    0.2    88      1.4   792.6    0.00      53    999.0    4.4
 327   15:10   37.0    59    0.0     0      0.0   792.6    0.00      56    999.0    4.2
 327   15:20   37.0    62    0.1    87      1.0   792.4    0.00      40    999.0    4.1
 327   15:30   36.7    61    0.3   272      2.1   792.5    0.00      22    999.0    4.2
 327   15:40   36.3    52    0.7   246      4.6   792.6    0.00      11    999.0    4.3
 327   15:50   35.8    56    0.3   299      3.1   792.6    0.00      13    999.0    4.2
 327   16:00   35.1    62    0.2   298      2.3   792.7    0.00      17    999.0    4.2
 327   16:10   34.7    63    0.0     0      0.0   792.7    0.00      14    999.0    3.9
 327   16:20   34.4    66    0.0   332      1.2   792.8    0.00      11    999.0    3.8
 327   16:30   34.2    65    0.4   198      3.7   792.9    0.00      10    999.0    3.6
 327   16:40   34.1    61    0.4   191      3.8   792.7    0.00       3    999.0    3.1
 327   16:50   33.8    60    0.0     0      0.0   792.7    0.00       2    999.0    3.2
 327   17:00   33.8    56    0.2   166      2.4   792.6    0.00       0    999.0    3.2
 327   17:10   33.6    57    0.3   290      2.6   792.5    0.00       0    999.0    3.1
 327   17:20   32.7    64    0.7   185      3.4   792.6    0.00       0    999.0    3.3
 327   17:30   32.0    62    0.5   219      3.6   792.8    0.00       0    999.0    2.9
 327   17:40   32.1    62    0.1   134      2.3   792.9    0.00       0    999.0    2.5
 327   17:50   31.6    64    0.1    66      0.9   792.8    0.00       0    999.0    2.6
 327   18:00   31.2    64    0.1   296      1.1   792.8    0.00       0    999.0    2.7
 327   18:10   30.5    67    0.0     0      0.0   792.8    0.00       0    999.0    2.6
 327   18:20   30.4    63    0.4   239      2.6   792.8    0.00       0    999.0    2.6
 327   18:30   30.7    60    0.1   171      0.9   792.8    0.00       0    999.0    2.5
 327   18:40   30.2    66    0.4   161      2.3   793.0    0.00       0    999.0    2.4
 327   18:50   29.5    67    0.3    79      2.7   793.1    0.00       0    999.0    2.5
 327   19:00   29.6    70    0.1   109      1.3   793.2    0.00       0    999.0    2.7
 327   19:10   29.3    69    0.3    85      1.9   793.3    0.00       0    999.0    2.7
 327   19:20   29.7    63    0.1   166      1.6   793.4    0.00       0    999.0    2.9
 327   19:30   30.3    58    0.2   186      2.2   793.5    0.00       0    999.0    2.8
 327   19:40   30.8    56    0.3   198      1.7   793.4    0.00       0    999.0    2.8
 327   19:50   31.3    55    0.0   239      0.7   793.4    0.00       0    999.0    2.8
 327   20:00   31.9    52    0.5   218      2.9   793.4    0.00       0    999.0    3.0
 327   20:10   30.9    60    0.6    81      2.6   793.4    0.00       0    999.0    2.8
 327   20:20   30.1    59    0.3    60      2.6   793.4    0.00       0    999.0    2.9
 327   20:30   30.5    56    0.3   262      2.2   793.5    0.00       0    999.0    2.9
 327   20:40   30.6    57    0.0   163      0.6   793.5    0.00       0    999.0    3.0
 327   20:50   30.4    59    0.7    82      3.6   793.6    0.00       0    999.0    3.1
 327   21:00   30.1    60    0.9    80      2.7   793.6    0.00       0    999.0    2.9
 327   21:10   29.9    61    0.1    86      1.7   793.6    0.00       0    999.0    2.9
 327   21:20   29.3    63    0.2    27      1.5   793.8    0.00       0    999.0    2.8
 327   21:30   29.4    60    0.1    62      1.6   793.8    0.00       0    999.0    3.0
 327   21:40   28.9    66    1.9    75      5.7   793.8    0.00       0    999.0    2.7
 327   21:50   28.4    66    0.1   188      2.9   793.8    0.00       0    999.0    3.0
 327   22:00   28.5    66    1.0    68      3.6   793.8    0.00       0    999.0    2.8
 327   22:10   27.7    70    0.2    85      2.2   793.8    0.00       0    999.0    2.9
 327   22:20   27.3    70    0.3    55      1.7   793.8    0.00       0    999.0    2.9
 327   22:30   27.2    71    1.0   158      5.4   793.9    0.00       0    999.0    3.0
 327   22:40   27.3    70    0.4   144      2.0   793.8    0.00       0    999.0    2.9
 327   22:50   27.4    70    0.5   167      3.8   793.9    0.00       0    999.0    2.9
 327   23:00   27.4    69    1.9   169      6.2   793.9    0.00       0    999.0    3.0
 327   23:10   27.6    68    3.1    90     15.1   793.9    0.00       0    999.0    2.9
 327   23:20   28.7    63    2.7   103     10.0   794.1    0.00       0    999.0    3.4
 327   23:30   29.5    60    2.1    95      8.2   794.1    0.00       0    999.0    3.3
 327   23:40   30.6    45    2.2   140      6.7   794.0    0.00       0    999.0    3.3
 327   23:50   29.1    61    1.4    80      6.6   794.0    0.00       0    999.0    3.5
 328    0:00   27.5    68    1.1    82      5.0   794.1    0.00       0    999.0    3.3
 328    0:10   29.5    54    2.3   136      7.2   794.0    0.00       0    999.0    3.7
 328    0:20   30.5    56    0.8   107      3.8   794.0    0.00       0    999.0    3.3
 328    0:30   28.2    65    0.5    82      3.1   793.9    0.00       0    999.0    3.4
 328    0:40   27.4    70    0.5    86      2.8   793.9    0.00       0    999.0    3.1
 328    0:50   26.9    73    0.5    77      1.8   793.8    0.00       0    999.0    3.3
 328    1:00   26.4    74    0.2   165      1.3   793.8    0.00       0    999.0    3.6
 328    1:10   26.6    69    0.2   184      2.6   793.7    0.00       0    999.0    3.2
 328    1:20   26.5    66    0.1   178      0.9   793.7    0.00       0    999.0    3.3
 328    1:30   26.2    62    0.2   165      2.8   793.8    0.00       0    999.0    3.7
 328    1:40   26.2    60    0.6   151      3.2   793.7    0.00       0    999.0    3.3
 328    1:50   25.9    62    0.1   131      2.9   793.8    0.00       0    999.0    3.7
 328    2:00   25.7    62    0.2   149      2.1   793.8    0.00       0    999.0    4.0
 328    2:10   25.5    61    0.3   196      2.8   793.8    0.00       0    999.0    4.5
 328    2:20   25.9    60    0.6   166      2.6   793.8    0.00       0    999.0    4.1
 328    2:30   25.7    64    0.2   182      0.8   793.8    0.00       0    999.0    3.9
 328    2:40   25.5    63    0.1   206      1.2   793.8    0.00       0    999.0    3.8
 328    2:50   25.6    59    0.5   171      3.2   793.8    0.00       0    999.0    5.2
 328    3:00   25.8    55    1.0   192      3.0   793.7    0.00       0    999.0    5.2
 328    3:10   25.9    56    0.4   187      3.1   793.6    0.00       0    999.0    5.8
 328    3:20   26.0    56    0.5   256      2.0   793.7    0.00       0    999.0    4.6
 328    3:30   26.3    57    0.2   237      1.5   793.8    0.00       0    999.0    5.3
 328    3:40   26.7    56    0.2   234      2.2   793.8    0.00       0    999.0    4.6
 328    3:50   25.8    60    0.8   122      4.0   793.8    0.00       0    999.0    6.1
 328    4:00   25.9    57    0.1   202      2.2   793.9    0.00       0    999.0    5.6
 328    4:10   25.9    56    0.1   128      1.1   794.0    0.00       0    999.0    6.0
 328    4:20   25.2    63    0.3    89      1.8   794.0    0.00       0    999.0    6.1
 328    4:30   25.3    57    0.4   214      3.7   794.0    0.00       0    999.0    5.9
 328    4:40   25.3    61    0.6    99      3.3   794.1    0.00       0    999.0    5.7
 328    4:50   25.1    60    0.1   187      1.4   794.2    0.00       0    999.0    5.6
 328    5:00   25.7    58    1.3   181      5.7   794.3    0.00       0    999.0    6.0
 328    5:10   25.6    60    1.1   191      5.0   794.3    0.00       0    999.0    5.6
 328    5:20   25.8    59    0.4   216      3.4   794.4    0.00       0    999.0    5.2
 328    5:30   25.5    61    0.2   205      2.2   794.5    0.00       0    999.0    5.3
 328    5:40   25.3    62    0.2    23      2.1   794.5    0.00       0    999.0    4.7

Return to Sugar Bowl graphs page.


Western Regional Climate Center,wrcc@dri.edu